Find Starlink 31727

NORAD ID: 59638 Int'l Des: 2024-082 Owner: SPXS Country: US Constellation: starlink operational
LEOCIRCULAR

Current View

Loading 3D Globe...

About Starlink 31727

Starlink 31727 (NORAD 59638) is a starlink constellation satellite (v2 mini) launched May 3, 2024 by SPXS of US. It operates in LEO, CIRCULAR orbit with a mass of 730.00 kg.

Upcoming Passes

Passes for default location (London). Set your location on the main map for personalized predictions.

Altitude History

Loading altitude history...

Two-Line Element Set

1 59638U 24082H 26255.14743811 .00000460 00000-0 26221-4 0 9993
2 59638 43.0039 167.1892 0001017 271.1609 88.9126 15.27580554133374
Epoch: Sep 12, 2026 • Age: 23 hours

Current Status

Altitude 487.5 km
Apogee / Perigee N/A
Velocity 7.62 km/s
Sub-Earth Point -20.78°S, 22.86°W
Launch Date May 3, 2024
Age 2.3 years
Type internet

Technical Details

Classification Payload
Mass 730.00 kg
Dry Mass 700.00 kg
Total Mass 730.00 kg
Length 0.30 m
Diameter 4.10 m
Span 29.00 m
Shape Box + pan
Manufacturer SPXS
Bus Type Starlink V2M
Phase Status In Orbit
Owner/State SPXS/US

Most Searched